TimeEST,TemperatureF,Dew PointF,Humidity,Sea Level PressureIn,VisibilityMPH,Wind Direction,Wind SpeedMPH,Gust SpeedMPH,PrecipitationIn,Events,Conditions,WindDirDegrees,DateUTC
12:15 AM,64.4,60.8,88,30.26,10.0,South,12.7,19.6,N/A,,Mostly Cloudy,170,2012-11-13 05:15:00
12:35 AM,64.4,60.8,88,30.25,10.0,South,12.7,17.3,N/A,,Overcast,170,2012-11-13 05:35:00
12:55 AM,64.4,60.8,88,30.25,10.0,South,11.5,18.4,N/A,,Overcast,170,2012-11-13 05:55:00
1:15 AM,64.4,62.6,94,30.24,10.0,SSE,10.4,17.3,N/A,,Overcast,160,2012-11-13 06:15:00
1:35 AM,64.4,62.6,94,30.23,10.0,South,10.4,16.1,N/A,,Overcast,170,2012-11-13 06:35:00
1:55 AM,66.2,62.6,88,30.23,10.0,South,11.5,20.7,N/A,,Mostly Cloudy,170,2012-11-13 06:55:00
2:15 AM,64.4,62.6,94,30.22,10.0,South,13.8,23.0,N/A,,Scattered Clouds,170,2012-11-13 07:15:00
2:35 AM,64.4,62.6,94,30.21,10.0,South,8.1,18.4,N/A,,Scattered Clouds,170,2012-11-13 07:35:00
2:55 AM,64.4,60.8,88,30.20,10.0,South,12.7,20.7,N/A,,Scattered Clouds,170,2012-11-13 07:55:00
3:15 AM,64.4,60.8,88,30.19,10.0,South,12.7,20.7,N/A,,Mostly Cloudy,170,2012-11-13 08:15:00
3:35 AM,64.4,62.6,94,30.18,10.0,South,9.2,21.9,N/A,,Overcast,180,2012-11-13 08:35:00
3:55 AM,64.4,60.8,88,30.17,10.0,South,13.8,19.6,N/A,,Mostly Cloudy,170,2012-11-13 08:55:00
4:15 AM,64.4,60.8,88,30.18,10.0,South,12.7,19.6,N/A,,Mostly Cloudy,170,2012-11-13 09:15:00
4:35 AM,64.4,60.8,88,30.17,10.0,South,11.5,21.9,N/A,,Mostly Cloudy,170,2012-11-13 09:35:00
4:55 AM,64.4,60.8,88,30.17,10.0,South,9.2,19.6,N/A,,Overcast,180,2012-11-13 09:55:00
5:15 AM,64.4,62.6,94,30.16,10.0,South,12.7,26.5,N/A,,Light Drizzle,170,2012-11-13 10:15:00
5:35 AM,66.2,62.6,88,30.17,10.0,South,11.5,24.2,N/A,,Overcast,180,2012-11-13 10:35:00
5:55 AM,66.2,60.8,83,30.17,10.0,South,10.4,24.2,N/A,,Mostly Cloudy,180,2012-11-13 10:55:00
6:15 AM,64.4,60.8,88,30.17,10.0,South,16.1,25.3,N/A,,Mostly Cloudy,180,2012-11-13 11:15:00
6:35 AM,64.4,60.8,88,30.17,10.0,South,15.0,25.3,N/A,,Scattered Clouds,170,2012-11-13 11:35:00
6:55 AM,64.4,60.8,88,30.17,10.0,South,11.5,20.7,N/A,,Mostly Cloudy,170,2012-11-13 11:55:00
7:15 AM,64.4,60.8,88,30.17,10.0,South,12.7,20.7,N/A,,Overcast,170,2012-11-13 12:15:00
7:35 AM,64.4,60.8,88,30.17,10.0,South,9.2,19.6,N/A,,Mostly Cloudy,180,2012-11-13 12:35:00
7:55 AM,64.4,60.8,88,30.17,6.0,South,11.5,21.9,N/A,,Light Drizzle,180,2012-11-13 12:55:00
8:15 AM,64.4,60.8,88,30.17,10.0,South,9.2,17.3,N/A,,Mostly Cloudy,190,2012-11-13 13:15:00
8:35 AM,64.4,62.6,94,30.18,10.0,South,9.2,16.1,N/A,,Overcast,170,2012-11-13 13:35:00
8:55 AM,64.4,62.6,94,30.18,10.0,South,8.1,-,N/A,,Overcast,180,2012-11-13 13:55:00
9:15 AM,64.4,62.6,94,30.19,10.0,SSW,4.6,-,N/A,,Overcast,200,2012-11-13 14:15:00
9:35 AM,57.2,53.6,88,30.22,7.0,WNW,11.5,18.4,N/A,Rain,Heavy Rain,290,2012-11-13 14:35:00
9:55 AM,55.4,51.8,88,30.23,5.0,NW,5.8,-,N/A,,Overcast,320,2012-11-13 14:55:00
10:15 AM,53.6,51.8,94,30.24,10.0,WNW,9.2,-,N/A,,Drizzle,300,2012-11-13 15:15:00
10:35 AM,53.6,51.8,94,30.25,10.0,WNW,4.6,-,N/A,,Overcast,300,2012-11-13 15:35:00
10:55 AM,53.6,51.8,94,30.24,10.0,NW,4.6,-,N/A,,Overcast,310,2012-11-13 15:55:00
11:15 AM,53.6,50.0,88,30.25,10.0,WNW,4.6,-,N/A,,Overcast,290,2012-11-13 16:15:00
11:35 AM,53.6,48.2,82,30.23,10.0,WNW,10.4,-,N/A,,Overcast,290,2012-11-13 16:35:00
11:55 AM,53.6,46.4,77,30.23,10.0,West,5.8,-,N/A,Rain,Light Rain,280,2012-11-13 16:55:00
12:15 PM,51.8,48.2,88,30.23,10.0,West,3.5,-,N/A,,Overcast,270,2012-11-13 17:15:00
12:35 PM,51.8,48.2,88,30.23,10.0,West,3.5,-,N/A,,Overcast,280,2012-11-13 17:35:00
12:55 PM,53.6,48.2,82,30.23,10.0,Calm,Calm,-,N/A,,Overcast,0,2012-11-13 17:55:00
1:15 PM,51.8,46.4,82,30.23,10.0,WNW,3.5,-,N/A,,Overcast,290,2012-11-13 18:15:00
1:55 PM,51.8,46.4,82,30.25,10.0,West,3.5,-,N/A,Rain,Light Rain,260,2012-11-13 18:55:00
2:15 PM,51.8,46.4,82,30.25,10.0,NW,3.5,-,N/A,,Mostly Cloudy,320,2012-11-13 19:15:00
2:35 PM,51.8,46.4,82,30.24,10.0,WNW,5.8,-,N/A,,Overcast,300,2012-11-13 19:35:00
2:55 PM,50.0,46.4,87,30.26,4.0,WNW,5.8,-,0.01,Rain,Rain,300,2012-11-13 19:55:00
3:15 PM,48.2,46.4,93,30.27,8.0,WNW,9.2,-,0.01,Rain,Light Rain,290,2012-11-13 20:15:00
3:35 PM,48.2,46.4,93,30.28,10.0,NW,5.8,-,0.01,Rain,Light Rain,310,2012-11-13 20:35:00
3:55 PM,46.4,44.6,93,30.29,10.0,NW,6.9,-,0.01,,Light Drizzle,310,2012-11-13 20:55:00
4:15 PM,44.6,42.8,93,30.29,10.0,WNW,6.9,18.4,N/A,,Overcast,300,2012-11-13 21:15:00
4:35 PM,44.6,41.0,87,30.31,10.0,WNW,4.6,-,0.01,Rain,Light Rain,290,2012-11-13 21:35:00
4:55 PM,44.6,41.0,87,30.31,10.0,WNW,4.6,-,0.01,,Light Drizzle,300,2012-11-13 21:55:00
5:15 PM,44.6,41.0,87,30.31,10.0,NW,5.8,-,N/A,,Light Drizzle,310,2012-11-13 22:15:00
5:35 PM,44.6,41.0,87,30.32,10.0,NW,4.6,-,N/A,,Light Drizzle,310,2012-11-13 22:35:00
5:55 PM,44.6,41.0,87,30.33,6.0,NW,6.9,-,N/A,Rain,Heavy Rain,310,2012-11-13 22:55:00
6:15 PM,42.8,41.0,93,30.34,10.0,West,4.6,-,N/A,,Overcast,280,2012-11-13 23:15:00
6:35 PM,44.6,42.8,93,30.35,10.0,WNW,4.6,-,N/A,,Overcast,300,2012-11-13 23:35:00
6:55 PM,44.6,42.8,93,30.36,10.0,WNW,4.6,-,N/A,,Overcast,290,2012-11-13 23:55:00
7:15 PM,44.6,42.8,93,30.36,10.0,NW,3.5,-,N/A,,Overcast,310,2012-11-14 00:15:00
7:35 PM,44.6,41.0,87,30.35,10.0,NW,8.1,-,N/A,Rain,Light Rain,310,2012-11-14 00:35:00
7:55 PM,44.6,37.4,76,30.36,10.0,WNW,10.4,16.1,N/A,,Overcast,300,2012-11-14 00:55:00
8:15 PM,44.6,35.6,71,30.37,10.0,NW,9.2,19.6,N/A,,Overcast,310,2012-11-14 01:15:00
8:35 PM,44.6,35.6,71,30.38,10.0,NW,11.5,16.1,N/A,,Overcast,310,2012-11-14 01:35:00
8:55 PM,44.6,33.8,66,30.38,10.0,NW,10.4,16.1,N/A,,Overcast,320,2012-11-14 01:55:00
9:15 PM,44.6,33.8,66,30.39,10.0,NW,10.4,-,N/A,,Overcast,310,2012-11-14 02:15:00
9:35 PM,44.6,33.8,66,30.40,10.0,NW,9.2,16.1,N/A,,Overcast,320,2012-11-14 02:35:00
9:55 PM,44.6,33.8,66,30.40,10.0,NW,8.1,18.4,N/A,,Overcast,320,2012-11-14 02:55:00
10:15 PM,44.6,35.6,71,30.40,10.0,North,9.2,18.4,N/A,,Overcast,360,2012-11-14 03:15:00
10:35 PM,44.6,35.6,71,30.41,9.0,North,8.1,18.4,N/A,,Light Drizzle,360,2012-11-14 03:35:00
10:55 PM,44.6,35.6,71,30.41,10.0,NNW,8.1,-,N/A,,Light Drizzle,340,2012-11-14 03:55:00
11:15 PM,44.6,35.6,71,30.41,10.0,NNW,8.1,-,N/A,,Light Drizzle,340,2012-11-14 04:15:00
11:35 PM,44.6,37.4,76,30.41,8.0,North,8.1,-,N/A,Rain,Light Rain,360,2012-11-14 04:35:00
11:55 PM,44.6,39.2,81,30.41,10.0,North,10.4,16.1,N/A,Rain,Light Rain,10,2012-11-14 04:55:00